This is the latest recevied weather packets stored in our database for station/object K0QJ. If no packets are shown the sender has not sent any weather packets the latest 1 day(s).
| Time | Temp. | Humidity | Pressure | Rain* | Wind** | Luminosity | Snow |
|---|---|---|---|---|---|---|---|
| 1777983121 | 8.33° C | 90% | 1008.9 hPa | 1.27 mm | 0 m/s | 2 W/m² | - |
| 1777982818 | 8.33° C | 89% | 1008.4 hPa | 0 mm | 0 m/s | 3 W/m² | - |
| 1777982514 | 8.33° C | 89% | 1008.7 hPa | 0 mm | 0 m/s | 4 W/m² | - |
| 1777982207 | 8.33° C | 88% | 1008.6 hPa | 0 mm | 0 m/s | 3 W/m² | - |
| 1777981906 | 8.33° C | 87% | 1008.3 hPa | 0 mm | 0 m/s | 5 W/m² | - |
| 1777981602 | 8.89° C | 86% | 1008.1 hPa | 1.78 mm | 0 m/s | 4 W/m² | - |
| 1777981299 | 8.89° C | 84% | 1008.4 hPa | 3.05 mm | 0.45 m/s, 14° | 2 W/m² | - |
| 1777980995 | 8.89° C | 83% | 1008.3 hPa | 1.27 mm | 0.45 m/s, 24° | 2 W/m² | - |
| 1777980692 | 9.44° C | 81% | 1008.3 hPa | 1.78 mm | 0.89 m/s, 12° | 0 W/m² | - |
| 1777980388 | 10° C | 80% | 1008.3 hPa | 1.78 mm | 0 m/s | 0 W/m² | - |
| 1777980086 | 10° C | 79% | 1008.1 hPa | 0 mm | 0 m/s | 0 W/m² | - |
| 1777979780 | 10° C | 79% | 1008.1 hPa | 0 mm | 0.45 m/s, 5° | 0 W/m² | - |
| 1777979476 | 9.44° C | 79% | 1008.5 hPa | 0 mm | 0.45 m/s, 9° | 0 W/m² | - |
| 1777979172 | 9.44° C | 81% | 1007.9 hPa | 0 mm | 0.45 m/s, 0° | 0 W/m² | - |
| 1777978870 | 9.44° C | 82% | 1008 hPa | 0 mm | 0.45 m/s, 5° | 0 W/m² | - |
| 1777978566 | 9.44° C | 83% | 1007.8 hPa | 0 mm | 0.45 m/s, 6° | 0 W/m² | - |
| 1777978262 | 9.44° C | 85% | 1007.5 hPa | 0 mm | 0.45 m/s, 4° | 0 W/m² | - |
| 1777977959 | 9.44° C | 86% | 1007.7 hPa | 0 mm | 0.45 m/s, 45° | 0 W/m² | - |
| 1777977656 | 9.44° C | 87% | 1007.9 hPa | 0 mm | 0.45 m/s, 23° | 0 W/m² | - |
| 1777977353 | 8.89° C | 87% | 1007.8 hPa | 0 mm | 0.45 m/s, 21° | 0 W/m² | - |
| 1777977050 | 8.89° C | 88% | 1007.9 hPa | 0 mm | 0.45 m/s, 10° | 0 W/m² | - |
| 1777976748 | 8.89° C | 89% | 1007.9 hPa | 0 mm | 0 m/s | 0 W/m² | - |
| 1777976445 | 8.89° C | 90% | 1007.7 hPa | 0 mm | 0.45 m/s, 13° | 0 W/m² | - |
| 1777976143 | 8.89° C | 91% | 1007.9 hPa | 0 mm | 0.45 m/s, 10° | 0 W/m² | - |
| 1777975839 | 8.89° C | 91% | 1008.1 hPa | 0 mm | 0 m/s | 0 W/m² | - |
* Rain latest hour (hover to see other rain measurements)
** Current wind speed in m/s (hover to see current wind gust speed)